This demonstration page uses our WeatherBlox Daily Observations layout. Learn more.

Left ArrowRight Arrow

44.8408, -93.29828

Hourly Observations for December 6, 2019

Temp ( °F °C ) Dew Point ( °F °C ) Humidity (%) Winds ( mph kmh ) Pressure ( in mb ) Visibility ( mi km ) Precip ( " mm )
12:53 am 00:53 Cloudy 32 0 23 -5 69 69 NNW 15 24 30.23 1024 10 16 0.00 0.00
1:53 am 01:53 Cloudy 30 -1.1 22 -5.6 72 72 NW 17 28 30.25 1025 10 16 0.00 0.00
2:22 am 02:22 Mostly Clear 27 -2.8 20 -6.7 75 75 NW 15 24 30.30 1026 10 16 0.00 0.00
2:53 am 02:53 Clear 26 -3.3 19 -7.2 75 75 NW 15 24 30.29 1026 10 16 0.00 0.00
3:53 am 03:53 Mostly Clear 24 -4.4 17 -8.3 75 75 NNW 12 19 30.31 1027 10 16 0.00 0.00
4:53 am 04:53 Mostly Clear 22 -5.6 15 -9.4 75 75 NW 8 13 30.33 1027 10 16 0.00 0.00
5:53 am 05:53 Mostly Clear 20 -6.7 13 -10.6 74 74 NW 8 13 30.36 1028 10 16 0.00 0.00
6:53 am 06:53 Mostly Clear 18 -7.8 12 -11.1 77 77 NW 8 13 30.36 1028 10 16 0.00 0.00
7:53 am 07:53 Sunny 17 -8.3 12 -11.1 80 80 NW 10 17 30.39 1029 10 16 0.00 0.00
8:53 am 08:53 Mostly Sunny 18 -7.8 11 -11.7 74 74 NW 8 13 30.40 1029 10 16 0.00 0.00
9:53 am 09:53 Mostly Sunny 19 -7.2 11 -11.7 71 71 NW 8 13 30.42 1030 10 16 0.00 0.00
10:53 am 10:53 Mostly Sunny 22 -5.6 12 -11.1 66 66 N 3 6 30.43 1030 10 16 0.00 0.00
11:53 am 11:53 Mostly Sunny 24 -4.4 13 -10.6 62 62 Calm 30.42 1030 10 16 0.00 0.00
12:53 pm 12:53 Mostly Sunny 26 -3.3 13 -10.6 57 57 W 3 6 30.40 1029 10 16 0.00 0.00
1:53 pm 13:53 Mostly Sunny 26 -3.3 13 -10.6 57 57 W 6 9 30.38 1029 10 16 0.00 0.00
2:53 pm 14:53 Partly Cloudy 26 -3.3 12 -11.1 55 55 SW 7 11 30.38 1029 10 16 0.00 0.00
3:53 pm 15:53 Mostly Cloudy 25 -3.9 13 -10.6 60 60 SW 8 13 30.39 1029 10 16 0.00 0.00
4:53 pm 16:53 Cloudy 24 -4.4 13 -10.6 62 62 SSW 6 9 30.39 1029 10 16 0.00 0.00
5:53 pm 17:53 Cloudy 23 -5 12 -11.1 63 63 SW 6 9 30.37 1028 10 16 0.00 0.00
6:53 pm 18:53 Cloudy 23 -5 13 -10.6 65 65 S 7 11 30.35 1028 10 16 0.00 0.00
7:53 pm 19:53 Cloudy 23 -5 13 -10.6 65 65 S 8 13 30.34 1028 10 16 0.00 0.00
8:53 pm 20:53 Cloudy 23 -5 14 -10 68 68 S 6 9 30.32 1027 10 16 0.00 0.00
9:53 pm 21:53 Cloudy 23 -5 15 -9.4 72 72 S 8 13 30.29 1026 10 16 0.00 0.00
10:53 pm 22:53 Cloudy 24 -4.4 16 -8.9 71 71 Calm 30.29 1026 10 16 0.00 0.00
11:53 pm 23:53 Cloudy 25 -3.9 17 -8.3 72 72 S 3 6 30.29 1026 10 16 0.00 0.00

Powered by AerisWeather